This is the latest recevied weather packets stored in our database for station/object KC1OEK-13. If no packets are shown the sender has not sent any weather packets the latest 10 day(s).
| Time | Temp. | Humidity | Pressure | Rain* | Wind** | Luminosity | Snow |
|---|---|---|---|---|---|---|---|
| 1778245852 | 11.67° C | 56% | 1013.3 hPa | 0 mm | - | 442 W/m² | - |
| 1778245549 | 11.11° C | 55% | 1013.5 hPa | 0 mm | - | 436 W/m² | - |
| 1778245245 | 11.67° C | 60% | 1013.5 hPa | 0 mm | - | 421 W/m² | - |
| 1778244941 | 11.11° C | 60% | 1013.3 hPa | 0 mm | - | 397 W/m² | - |
| 1778244639 | 11.11° C | 63% | 1013.4 hPa | 0 mm | - | 377 W/m² | - |
| 1778244337 | 11.11° C | 62% | 1013.6 hPa | 0 mm | - | 359 W/m² | - |
| 1778244033 | 10.56° C | 62% | 1013.4 hPa | 0 mm | - | 345 W/m² | - |
| 1778243732 | 10.56° C | 64% | 1013.4 hPa | 0 mm | - | 331 W/m² | - |
| 1778243428 | 10.56° C | 63% | 1013.3 hPa | 0 mm | - | 315 W/m² | - |
| 1778243125 | 10.56° C | 64% | 1013.5 hPa | 0 mm | - | 296 W/m² | - |
| 1778242822 | 10° C | 65% | 1013.4 hPa | 0 mm | - | 280 W/m² | - |
| 1778242520 | 10° C | 67% | 1013.3 hPa | 0 mm | - | 235 W/m² | - |
| 1778242218 | 9.44° C | 68% | 1013.4 hPa | 0 mm | - | 242 W/m² | - |
| 1778241915 | 8.89° C | 69% | 1013.5 hPa | 0 mm | - | 243 W/m² | - |
| 1778241614 | 8.89° C | 70% | 1013.4 hPa | 0 mm | - | 82 W/m² | - |
| 1778241311 | 8.33° C | 72% | 1013.6 hPa | 0 mm | - | 189 W/m² | - |
| 1778241007 | 8.33° C | 72% | 1013.5 hPa | 0 mm | - | 86 W/m² | - |
| 1778240704 | 8.33° C | 71% | 1013.3 hPa | 0 mm | - | 66 W/m² | - |
| 1778240400 | 8.33° C | 73% | 1013.3 hPa | 0 mm | - | 88 W/m² | - |
| 1778240098 | 7.78° C | 75% | 1013.3 hPa | 0 mm | - | 107 W/m² | - |
| 1778239795 | 7.78° C | 77% | 1013.2 hPa | 0 mm | - | 69 W/m² | - |
| 1778239492 | 6.67° C | 80% | 1013.2 hPa | 0 mm | - | 54 W/m² | - |
| 1778239188 | 5.56° C | 89% | 1013.4 hPa | 0 mm | - | 46 W/m² | - |
| 1778238885 | 5° C | 91% | 1013.2 hPa | 0 mm | - | 41 W/m² | - |
| 1778238582 | 5° C | 92% | 1013.1 hPa | 0 mm | - | 39 W/m² | - |
* Rain latest hour (hover to see other rain measurements)
** Current wind speed in m/s (hover to see current wind gust speed)